Theta_e
326 325 326 327 326 325 325 324 321 318 319 322 323 321 319 319 319 316 313 310 307 304 304 306 306 307 306 306 306 306 307 307 307 308 308 309 309 309 309 309 309 309 310 309 309 309 310 313 317 318 318 318 317 314 314 313 313 315 316 318 319 316 313 313 315 313 310 309 309 308 309 310 310 310 311 311 311 311 311 311 310 310 311 311 311
324 324 325 325 325 325 325 323 322 321 322 322 321 320 320 320 319 318 314 311 309 308 307 308 310 309 309 309 309 309 309 308 309 308 309 310 311 311 310 309 310 309 309 309 309 309 309 311 314 316 316 315 314 314 313 313 313 314 315 316 316 314 313 314 315 313 311 310 309 308 310 311 310 310 311 311 311 311 311 310 310 310 310 311 311
324 324 325 324 324 325 324 323 323 323 322 320 319 320 321 319 318 317 313 310 312 313 310 309 311 310 309 310 311 313 314 312 312 311 309 310 313 315 314 314 313 313 311 310 309 310 310 311 313 313 313 313 313 313 314 314 314 314 315 315 314 313 314 315 315 313 311 310 309 309 311 312 311 311 311 311 311 311 311 310 310 310 310 310 311
325 326 326 325 325 326 325 323 323 323 322 321 320 320 320 319 318 317 313 309 311 315 312 310 310 308 309 311 313 316 318 316 314 314 312 313 315 317 318 318 317 316 316 314 312 311 311 311 312 312 313 313 313 313 313 314 314 314 315 314 314 314 314 314 315 314 313 311 309 309 311 312 313 312 311 311 311 311 311 311 311 310 310 310 311
327 326 326 326 326 326 325 323 322 321 322 322 322 321 320 321 320 317 313 309 308 312 312 310 310 308 309 312 313 316 316 314 313 314 315 315 316 317 318 318 317 317 318 317 316 315 315 313 312 311 312 313 313 313 313 313 313 314 314 314 314 315 314 314 315 315 315 314 312 311 311 313 313 312 311 311 311 312 312 312 312 311 310 310 311
327 326 325 325 325 323 323 322 319 319 321 321 321 320 318 319 319 318 316 311 307 309 311 310 310 310 311 314 316 316 315 314 314 315 316 316 316 317 318 318 317 317 318 318 319 319 318 317 316 313 312 312 312 313 313 313 314 314 314 314 314 315 315 316 316 316 316 315 314 313 312 313 313 312 311 312 312 312 312 312 312 312 311 311 311
326 326 325 324 323 322 322 322 319 320 321 317 316 315 314 314 314 315 317 313 307 308 310 310 311 311 312 315 317 318 318 318 318 318 317 317 317 318 318 318 318 317 318 319 320 320 320 319 319 317 315 313 313 314 313 313 314 314 314 314 315 316 316 316 317 316 316 316 315 314 313 313 313 313 312 313 313 313 313 313 313 312 312 312 312
325 326 325 324 323 323 323 322 321 321 320 316 314 314 315 313 311 312 315 313 308 309 309 309 310 311 313 316 318 319 320 320 320 320 319 318 318 319 318 317 318 318 318 319 320 321 321 320 319 319 318 317 317 317 316 316 315 315 315 315 315 316 316 316 317 317 316 317 316 315 314 314 315 314 314 314 314 314 314 314 314 313 313 313 313
323 324 325 325 325 323 321 321 321 319 318 317 317 317 315 311 310 312 314 311 309 310 311 311 311 311 312 315 318 320 320 319 320 320 320 319 318 319 319 318 317 317 318 318 318 319 319 319 318 318 319 319 319 319 318 318 317 316 315 315 315 315 315 316 316 317 317 317 317 316 316 315 315 315 315 315 315 315 315 314 314 314 314 314 313
322 323 324 324 325 323 321 320 320 317 317 317 318 318 316 313 312 312 311 311 311 311 313 315 315 313 312 315 319 320 320 319 319 319 319 318 318 319 319 318 318 317 317 317 317 317 317 317 317 318 319 319 319 319 319 319 318 317 316 316 315 315 315 315 316 316 316 316 316 315 315 315 315 315 315 315 315 315 314 314 314 314 314 314 314
324 324 323 323 323 322 320 319 319 318 317 317 317 319 319 318 317 314 312 313 315 315 315 317 318 317 315 316 319 320 320 320 319 319 319 318 317 318 319 319 318 317 317 317 316 316 317 317 317 318 318 318 319 319 319 319 318 317 317 316 316 316 316 316 316 316 316 315 315 315 315 315 315 314 314 315 314 314 314 314 314 314 313 313 313
323 324 324 323 322 321 320 319 319 319 319 318 318 320 320 320 319 318 317 317 318 318 318 318 318 318 318 319 320 320 320 320 320 319 319 318 317 317 318 319 319 317 316 316 316 316 317 318 318 318 317 317 318 318 318 318 318 318 316 315 313 312 311 311 311 311 311 311 310 311 313 314 314 314 314 314 314 314 314 313 313 313 313 313 312
324 324 325 324 324 323 322 321 321 322 322 321 320 320 321 321 321 321 320 320 320 320 319 319 319 319 319 320 320 319 319 320 320 319 318 317 317 317 317 318 318 317 316 315 315 316 318 318 318 317 316 316 317 318 318 317 317 315 312 309 307 305 305 304 304 304 305 306 306 308 311 313 314 314 314 314 313 313 313 313 312 312 312 311 311
323 324 323 323 323 324 324 323 323 323 323 322 321 320 320 321 322 321 322 321 321 321 320 320 320 319 320 320 320 319 319 320 320 319 318 317 317 316 316 317 316 316 316 315 316 317 318 318 317 315 314 314 315 316 315 313 311 309 307 305 304 303 303 303 304 304 304 304 306 308 310 311 313 313 314 314 313 313 313 312 312 311 311 311 310
322 322 322 322 323 322 323 323 323 322 321 321 321 321 321 322 322 321 322 322 321 321 321 320 320 320 320 320 319 319 319 319 319 318 318 318 317 316 316 317 316 316 315 315 316 317 317 316 315 313 312 312 311 311 310 309 308 307 306 304 303 302 303 303 303 304 304 304 304 305 307 310 311 312 313 313 313 313 312 312 311 310 309 308 307
318 319 320 320 321 321 321 322 321 321 321 321 321 322 322 322 321 321 321 321 321 321 321 321 321 321 320 320 319 318 319 319 319 318 318 317 317 317 317 317 316 315 315 315 316 316 316 315 314 313 313 312 310 309 309 308 308 308 305 303 302 302 303 303 303 303 304 304 304 304 304 306 307 308 308 308 308 308 307 306 305 304 303 302 301
313 314 316 317 318 319 320 321 321 321 320 320 320 320 320 320 320 321 320 320 321 320 320 320 321 321 320 319 319 318 318 318 318 318 317 317 317 317 317 316 316 316 315 315 315 316 315 315 315 314 314 313 311 311 310 308 307 306 303 302 302 302 302 303 304 305 305 305 304 304 304 305 305 305 304 304 303 302 301 301 300 300 299 299 299
310 311 312 313 314 316 317 317 318 320 319 319 318 317 317 318 318 319 319 319 319 319 319 319 319 319 318 318 317 317 317 317 317 316 316 316 317 317 316 316 316 315 315 315 315 315 315 315 315 315 315 314 313 312 310 306 304 303 301 301 301 301 302 304 305 306 307 307 307 306 306 306 305 305 303 302 301 300 299 299 299 299 299 299 299
309 309 309 310 311 312 312 313 314 315 315 316 317 317 317 316 316 316 316 316 316 317 316 316 316 316 316 316 316 316 316 316 316 315 315 315 315 315 315 315 314 315 316 316 315 315 315 315 315 315 315 314 312 309 305 303 301 301 301 301 301 301 303 304 306 308 308 308 308 307 307 306 305 303 302 301 300 299 299 299 299 299 298 298 299
309 309 309 309 310 310 311 311 311 312 312 313 315 316 316 315 314 314 314 314 314 314 314 313 313 313 313 313 315 315 315 314 314 314 313 313 312 312 311 311 312 314 315 315 315 315 314 313 312 312 311 309 306 303 301 301 301 300 300 300 300 301 303 305 308 309 309 308 308 307 306 304 303 301 301 300 299 299 299 298 299 298 298 298 299
309 309 309 309 309 310 310 310 310 311 311 312 312 313 313 314 314 314 315 314 314 314 314 313 312 312 311 312 313 314 312 311 312 312 312 311 309 306 306 308 312 314 314 313 312 311 310 309 308 305 304 304 302 302 302 302 301 300 300 299 299 300 302 304 306 307 307 306 305 304 303 302 301 300 300 299 299 298 298 298 298 298 299 299 299
309 309 310 310 310 309 309 310 310 310 310 311 311 311 312 312 312 313 313 312 313 314 314 313 313 313 313 312 313 313 312 310 310 309 309 308 305 302 304 310 313 313 313 312 312 311 309 309 306 304 304 304 303 304 304 302 301 301 300 299 299 299 300 301 303 304 304 303 302 301 301 300 300 299 299 299 298 298 298 298 299 299 299 298 298
306 307 308 309 309 309 309 309 309 310 310 310 310 311 311 311 311 311 311 311 311 311 312 312 312 312 312 313 312 312 312 312 310 307 305 303 302 301 304 310 313 313 312 312 313 312 310 309 307 306 306 306 306 306 304 301 300 300 299 299 299 298 299 300 300 301 301 301 300 300 300 299 299 299 299 298 298 298 298 298 298 298 298 297 297
301 302 302 304 305 306 306 307 307 307 307 308 309 309 309 309 310 310 311 311 310 310 310 311 311 311 311 311 312 313 313 312 311 308 304 302 301 301 303 306 309 311 311 312 312 312 311 309 308 308 308 307 307 306 303 300 299 299 298 298 298 298 299 299 300 300 300 299 299 299 299 299 299 299 298 298 297 298 298 298 297 297 297 296 296
298 298 299 299 300 301 302 304 304 303 303 304 305 305 305 306 307 307 308 309 310 309 310 310 310 310 310 310 311 311 312 313 312 310 308 306 303 302 302 303 303 305 307 309 310 312 311 309 309 308 308 307 307 305 301 299 299 298 298 298 298 298 298 299 299 299 299 299 299 299 299 299 298 297 297 297 297 297 297 297 297 296 296 296 295
297 297 297 297 297 298 298 298 298 299 299 299 300 301 302 303 304 304 305 307 307 308 308 308 309 309 309 309 310 310 311 313 312 310 309 309 308 305 303 302 302 302 304 307 310 312 311 310 309 308 308 307 305 302 299 299 299 298 298 298 298 298 299 299 299 299 299 299 299 298 298 297 297 297 297 297 297 297 296 296 295 295 295 294 294
297 297 297 297 296 296 297 296 297 297 297 297 297 297 298 299 301 302 303 304 306 306 307 307 307 308 308 309 310 309 310 311 310 309 309 310 310 308 305 303 303 302 302 306 309 310 310 310 309 307 307 306 303 300 299 299 299 298 297 297 298 298 298 298 299 299 299 298 298 297 297 297 297 297 297 297 296 296 295 294 293 293 293 293 293
296 296 296 296 296 296 296 296 296 296 297 297 297 297 297 298 299 300 301 302 303 305 305 305 305 306 307 308 309 309 309 309 309 309 310 310 310 309 307 306 305 303 302 304 307 308 309 310 308 306 306 305 301 299 299 299 298 298 298 298 298 298 298 298 298 298 298 297 297 296 296 296 296 296 296 295 295 294 293 293 293 293 292 292 292
296 296 296 296 296 296 296 296 296 296 296 297 297 297 298 298 299 299 300 300 301 302 303 303 303 304 304 305 306 308 308 309 309 309 309 310 310 308 306 305 304 302 302 304 306 307 308 308 306 306 305 302 299 298 298 298 298 298 298 299 299 298 298 298 298 298 297 296 296 296 295 295 295 295 295 294 293 293 292 292 292 292 292 291 291
296 296 296 296 296 296 295 295 295 295 296 296 296 297 297 298 298 299 299 300 300 300 301 301 302 302 302 302 303 304 306 307 307 307 308 308 308 308 307 305 304 303 303 303 303 304 305 306 306 305 303 301 300 299 299 299 299 300 300 300 299 298 299 299 298 297 297 296 295 295 295 295 295 295 294 293 292 292 292 292 291 291 291 290 290
295 295 295 295 295 295 295 295 295 295 295 295 295 295 296 297 297 298 299 299 300 300 300 301 301 301 302 302 301 302 304 305 305 305 305 304 305 306 306 305 305 305 305 303 302 301 302 304 304 303 302 301 301 300 299 299 300 301 301 300 299 299 299 299 298 297 296 295 295 295 294 295 295 294 293 293 292 292 291 291 291 291 290 290 290
293 293 293 293 293 293 293 293 293 293 294 294 294 294 295 295 296 297 297 298 299 300 300 300 301 301 301 302 301 302 303 304 305 305 304 304 304 304 305 305 304 305 305 304 302 300 301 302 302 301 301 301 300 299 299 299 300 301 301 299 298 299 298 298 298 296 296 295 295 295 295 295 294 294 293 292 291 291 291 291 291 291 290 290 290
292 292 292 292 292 292 292 293 293 293 294 294 294 294 294 295 295 295 296 297 297 298 299 300 300 301 301 301 302 302 303 304 305 305 306 305 305 305 305 305 305 305 305 303 301 300 300 300 301 300 300 300 299 300 299 299 300 301 300 299 298 298 298 298 297 296 295 295 295 295 294 294 293 293 292 291 290 290 290 291 291 291 290 290 290
293 293 293 293 292 292 292 293 294 294 295 295 295 295 296 296 296 296 297 296 296 296 297 298 299 300 300 301 301 302 303 304 305 305 306 305 305 305 305 305 305 306 305 303 301 300 300 300 300 300 300 300 300 300 299 299 300 300 299 298 298 297 297 297 297 295 295 295 295 294 293 292 292 291 290 290 289 289 290 290 290 290 290 290 290
294 294 294 294 293 293 293 294 295 295 296 296 296 296 296 296 297 297 297 297 297 297 296 297 298 299 299 300 300 301 302 304 304 304 304 304 304 304 305 305 305 305 305 303 301 300 300 300 299 299 299 299 299 299 300 301 301 300 299 298 297 297 297 297 296 295 295 295 294 293 292 291 290 290 289 289 289 289 289 290 290 290 290 289 289
295 295 295 295 295 295 294 294 295 295 296 296 295 295 295 295 295 296 296 296 297 297 297 297 298 299 299 300 300 300 301 303 303 303 303 303 303 304 304 305 305 305 304 302 301 300 300 299 299 299 299 299 298 299 301 301 300 299 298 297 297 297 297 296 295 294 294 294 293 292 291 290 290 289 289 288 289 289 289 290 290 289 289 289 290
296 296 296 296 295 295 295 294 295 295 295 295 294 294 294 294 294 294 295 295 295 296 297 298 298 299 299 300 300 300 301 302 302 302 303 302 303 303 304 303 304 304 303 302 300 300 299 299 299 299 299 299 299 300 301 301 300 299 298 297 297 297 296 295 294 294 293 292 292 291 291 291 290 289 289 289 289 289 290 290 289 289 289 290 290
295 295 295 295 295 295 295 295 295 295 294 294 294 294 294 294 294 294 294 294 294 294 296 297 298 298 299 299 300 300 301 301 302 302 302 302 303 302 301 300 301 302 302 301 300 299 299 299 300 300 299 299 299 300 301 300 300 298 297 297 297 296 295 294 293 293 292 292 291 291 291 291 290 290 289 289 289 289 290 290 289 289 289 290 290
295 295 295 295 295 295 295 294 294 294 294 293 293 294 294 294 294 294 294 293 293 294 295 296 297 298 299 299 299 299 299 300 300 300 300 301 300 300 299 298 298 299 300 300 300 299 299 300 300 300 300 300 300 300 300 299 298 297 297 297 297 295 294 293 293 292 291 291 291 291 291 291 290 289 288 289 289 289 290 290 289 289 290 290 290
296 295 295 295 295 295 295 295 295 294 294 293 294 294 293 293 293 293 293 292 292 293 295 296 297 298 298 299 299 299 299 299 298 298 298 298 298 297 297 298 298 298 298 299 299 299 299 300 300 300 300 300 300 300 299 298 297 297 297 297 296 295 294 293 293 292 291 291 290 290 290 290 289 288 288 288 289 289 290 290 289 289 289 289 289
296 296 295 295 295 295 294 294 294 294 294 294 294 294 293 293 293 292 292 291 291 292 294 295 296 297 298 298 298 299 299 298 298 297 297 297 297 297 298 298 297 297 298 298 299 299 300 300 300 300 300 299 298 298 298 297 297 297 297 296 296 295 294 293 292 291 290 290 290 290 290 289 288 288 288 288 289 289 289 289 289 289 289 289 290
296 296 296 296 295 295 294 294 293 293 293 294 294 294 293 293 292 292 291 291 291 292 293 294 295 296 297 297 298 298 298 298 297 297 297 297 297 298 298 298 298 298 298 299 299 300 300 300 299 299 298 297 296 297 296 296 295 296 296 295 295 294 293 292 291 290 290 290 290 290 289 288 287 287 288 289 289 289 289 289 289 289 289 290 291
295 296 297 296 295 294 294 293 293 293 293 293 293 293 293 293 292 291 291 291 292 292 293 293 294 295 295 296 296 297 297 297 297 296 296 296 297 297 297 297 298 298 298 299 299 299 299 299 298 297 297 296 296 297 296 295 295 295 295 294 294 293 292 291 290 291 291 290 290 289 288 287 287 287 288 288 289 289 288 288 289 289 290 290 291
295 296 296 295 295 294 293 293 293 293 292 292 292 293 293 293 292 292 292 291 292 292 292 293 293 294 295 295 295 296 296 297 296 296 296 296 296 296 296 297 298 298 298 298 298 298 298 298 297 296 296 296 295 295 295 295 294 294 293 293 292 292 291 291 291 290 290 289 288 288 287 287 287 287 288 288 289 289 288 288 289 290 291 290 290
295 295 295 295 294 294 294 294 293 293 293 292 292 292 293 293 292 292 292 291 291 292 292 293 293 293 294 294 295 295 295 296 295 296 296 295 295 296 297 297 297 297 297 297 297 297 297 297 296 296 296 295 295 294 294 294 293 293 292 292 292 291 291 291 290 289 289 288 288 288 288 287 286 287 287 288 289 289 288 288 290 291 290 290 291
295 295 295 295 294 294 294 294 294 293 293 293 292 292 292 293 293 292 292 291 291 292 292 293 293 293 293 294 294 294 295 295 295 295 295 295 295 296 297 296 296 296 296 296 296 296 296 296 296 296 295 295 294 293 293 293 293 293 293 292 292 292 291 290 289 288 288 288 288 289 289 288 287 287 287 288 288 288 288 289 290 291 290 290 291
295 295 295 295 295 295 295 295 295 294 294 294 293 292 292 292 293 293 292 292 291 292 292 292 292 292 293 293 293 294 294 294 294 294 294 294 295 295 296 296 296 296 296 296 295 295 295 295 295 294 294 293 293 292 292 293 293 293 293 292 292 291 290 289 288 288 288 288 289 289 289 289 289 287 287 287 288 288 288 289 290 290 290 290 290
295 295 295 295 295 296 295 295 295 295 294 294 293 293 292 292 292 292 292 292 292 292 292 292 292 292 292 292 293 293 293 293 293 293 293 294 294 294 295 295 295 295 295 294 294 293 293 293 293 293 293 292 292 292 293 293 293 293 292 291 291 290 289 288 288 288 288 289 289 289 289 289 289 289 287 287 287 287 287 289 290 290 290 290 290
295 296 296 295 296 296 295 295 295 295 294 294 293 293 293 292 291 291 291 292 292 292 292 292 292 292 292 292 292 292 293 293 293 293 293 293 293 293 293 293 293 293 292 292 292 292 292 292 293 293 293 293 293 293 292 292 292 291 291 290 289 288 288 288 288 288 289 289 289 289 289 289 289 289 288 288 287 287 287 288 289 290 290 289 289
295 296 296 296 296 296 295 295 295 295 294 294 293 293 293 292 291 290 290 291 291 292 292 292 292 292 292 292 292 292 292 293 293 293 293 293 293 293 293 293 293 292 292 292 293 293 293 293 293 293 293 293 292 292 291 291 290 290 289 289 288 288 288 289 289 289 289 289 289 289 289 289 289 290 289 288 288 287 287 288 289 290 290 289 289
296 296 296 295 295 295 295 295 295 294 294 294 293 293 292 292 291 290 289 290 290 291 291 292 292 292 292 292 292 292 292 292 292 292 292 292 292 292 292 292 292 292 292 292 292 293 293 293 293 293 292 292 292 291 290 290 289 288 288 288 288 288 289 289 289 289 289 289 289 289 289 289 289 290 290 289 288 287 288 288 288 289 290 289 289
Wind_Speed
22 23 24 24 23 21 20 18 18 18 19 18 15 14 14 12 10 9 10 12 15 18 19 20 20 20 19 19 19 19 19 19 19 19 18 17 16 15 15 14 14 13 14 13 13 13 14 17 17 15 14 13 12 11 10 9 6 6 12 21 23 18 12 6 3 5 8 7 5 3 4 5 6 6 7 6 6 5 6 7 7 6 5 4 4
24 25 25 24 23 22 21 20 19 19 19 17 13 13 14 11 9 8 9 12 15 17 19 20 20 19 19 19 19 18 18 18 18 17 17 16 16 15 14 13 13 13 13 13 13 13 14 16 17 16 14 14 13 12 10 8 8 8 12 18 21 17 11 7 5 6 8 9 8 6 4 4 3 3 4 4 4 3 3 4 4 3 2 2 3
25 25 25 25 25 24 22 21 21 20 18 15 13 14 14 11 10 10 9 12 15 15 17 19 19 18 19 19 18 18 17 17 17 15 14 14 15 15 14 12 12 12 13 13 13 14 15 16 17 16 15 14 12 10 9 9 9 12 15 17 17 14 10 6 5 7 8 9 8 6 4 3 1 1 1 1 0 0 1 1 1 1 1 3 3
23 25 25 26 26 24 22 22 24 22 18 15 15 15 15 13 12 11 10 13 16 15 15 17 17 18 18 17 18 17 16 15 15 14 13 13 13 14 13 11 10 11 11 12 13 14 15 16 16 16 15 14 12 11 11 10 10 12 15 17 17 15 12 8 6 7 8 9 9 7 5 4 3 3 4 3 3 3 2 2 3 4 4 5 5
25 25 24 26 26 21 20 22 22 19 16 16 17 17 16 14 13 12 11 14 16 16 16 16 17 18 17 16 16 17 16 14 13 13 14 14 14 13 12 10 10 10 10 11 11 12 12 13 15 16 15 14 13 14 13 11 11 12 12 14 14 14 13 11 9 8 8 9 10 9 8 6 5 6 7 6 4 5 5 5 6 6 7 8 7
24 26 25 26 26 21 20 21 20 19 19 19 18 17 16 14 14 13 13 15 17 18 17 18 18 18 17 16 15 15 14 13 11 11 13 15 15 13 11 10 9 10 11 11 10 10 10 11 13 14 16 15 15 16 15 12 12 13 13 12 12 11 11 11 10 9 8 9 10 10 11 9 7 7 9 8 6 6 7 8 8 8 8 9 10
22 25 25 25 27 25 23 21 22 22 22 21 20 18 16 15 16 17 16 15 18 19 19 20 19 18 17 16 14 13 12 12 11 10 11 13 15 14 11 10 9 10 12 12 12 11 11 11 10 12 14 15 15 16 17 15 13 13 14 13 12 10 10 10 10 10 10 10 10 11 12 11 9 8 9 9 8 9 9 10 10 10 10 11 12
17 19 20 20 23 25 23 21 22 22 20 19 19 17 17 19 18 18 18 18 19 21 20 20 19 18 17 16 15 14 13 12 12 12 12 12 13 13 12 11 10 10 13 14 14 14 14 14 12 13 14 15 15 16 16 16 15 14 14 13 12 11 10 10 11 12 11 10 10 10 11 11 10 10 10 9 10 11 12 12 12 12 13 15 16
13 13 15 18 20 22 23 22 22 21 19 18 17 15 17 19 19 18 19 20 21 21 20 19 18 18 18 17 17 16 15 14 14 14 14 13 13 14 14 13 12 12 13 15 16 16 16 16 16 15 15 15 15 15 14 14 14 14 14 14 13 13 12 11 12 12 12 11 10 10 11 12 12 12 12 11 12 12 13 13 14 15 16 17 19
11 10 13 17 21 22 24 24 23 21 20 19 19 19 18 18 17 17 19 20 20 21 20 19 18 18 18 19 19 18 17 16 14 14 14 14 14 16 16 15 14 14 14 16 18 18 17 17 17 17 16 16 16 15 14 13 13 12 13 14 14 14 13 13 14 14 13 13 13 14 14 14 14 14 14 14 14 14 15 15 16 17 18 19 19
11 11 12 16 19 21 23 24 23 23 21 20 20 20 19 18 17 18 19 20 19 20 20 19 18 18 18 18 19 18 17 17 16 15 15 15 15 16 17 17 17 16 16 17 18 19 19 18 17 17 16 16 16 16 15 14 14 13 12 13 14 14 14 14 15 15 15 15 15 15 16 15 15 15 16 16 16 16 17 17 18 19 19 20 20
12 12 12 14 17 19 21 22 22 22 22 20 21 21 19 19 19 19 19 20 20 20 19 19 19 19 19 19 19 19 18 18 17 17 17 16 16 16 17 18 18 18 18 17 17 18 18 18 17 16 16 16 16 16 16 15 15 13 12 12 12 12 12 12 13 14 14 15 15 15 15 15 16 16 16 17 17 17 17 17 18 19 19 20 21
12 12 11 11 13 15 17 19 20 21 20 20 22 22 22 21 20 20 20 21 20 20 20 20 20 20 21 21 20 20 20 19 19 18 17 16 16 16 18 18 18 17 15 14 15 16 18 18 17 16 16 16 16 16 15 14 13 12 11 11 10 10 9 9 10 10 11 12 13 13 14 15 16 16 16 17 17 17 17 18 19 20 20 21 22
11 11 10 9 8 9 11 14 17 18 18 19 21 22 23 23 21 21 21 21 21 20 20 20 21 21 22 22 21 22 21 21 20 19 18 17 16 17 17 17 16 15 13 13 15 17 18 17 16 16 16 16 16 15 14 13 12 12 11 9 9 8 8 8 8 9 9 10 11 12 14 15 16 17 17 18 18 19 19 20 20 21 22 23 24
13 13 12 10 9 9 10 11 13 14 15 16 18 21 24 25 23 22 22 21 21 20 20 20 21 21 22 22 22 22 22 21 21 20 19 19 18 17 16 16 17 16 15 15 16 17 18 17 16 15 15 14 14 13 13 13 12 11 9 8 8 7 7 7 7 8 8 9 9 10 12 13 15 16 17 18 18 19 20 21 21 22 22 23 23
16 14 13 11 11 10 10 11 11 12 12 12 14 16 19 19 20 22 22 22 21 20 20 20 21 21 21 22 22 21 21 21 21 20 20 19 17 17 18 19 19 19 17 17 18 18 18 17 15 15 14 13 13 13 12 12 12 10 9 8 8 8 8 8 8 8 8 7 7 7 8 9 10 11 12 14 15 17 18 19 19 20 20 20 21
20 18 16 15 13 12 11 10 10 10 9 8 7 7 8 9 11 14 17 18 19 19 19 19 20 20 21 21 21 21 21 21 21 20 18 17 17 19 20 20 20 20 19 19 19 18 17 15 15 14 13 12 12 11 10 9 10 10 9 8 9 9 9 10 10 9 8 7 7 7 7 8 9 11 12 14 15 16 17 17 18 19 19 20 21
22 20 19 18 16 15 14 12 10 9 8 6 5 3 2 3 5 7 9 11 12 13 15 16 17 18 19 19 19 19 19 18 17 16 16 17 19 20 20 20 20 20 20 19 18 17 16 14 13 14 13 12 11 10 9 9 9 9 9 9 10 10 11 11 11 10 9 9 8 9 9 10 12 14 15 16 17 17 17 17 18 19 20 21 22
18 18 18 17 16 15 15 14 12 11 9 6 5 4 3 2 3 4 5 6 8 9 11 12 13 14 14 15 15 15 14 14 15 16 17 19 20 20 20 20 20 20 20 19 18 17 16 15 14 14 13 12 11 10 9 8 8 8 8 9 10 11 12 12 12 11 10 10 10 11 13 14 15 17 17 17 16 16 17 18 19 20 20 21 23
10 11 12 13 13 13 13 13 12 11 10 8 6 6 6 5 4 4 4 5 6 7 8 9 9 10 11 12 13 13 13 13 15 17 18 19 20 21 22 23 23 22 22 21 20 19 18 17 16 16 15 13 12 11 10 9 8 8 8 9 10 11 13 13 13 11 11 11 12 13 15 16 17 18 18 17 17 17 19 20 20 21 21 21 23
3 3 4 5 6 7 8 9 9 9 9 9 8 8 7 7 6 6 6 6 8 9 9 9 9 9 11 12 13 14 14 14 15 17 19 20 21 23 24 25 24 24 23 21 20 19 18 17 17 18 16 15 13 13 12 10 9 8 8 8 9 11 13 14 15 14 13 13 13 15 16 16 17 17 17 17 17 18 19 20 20 20 21 22 23
5 5 5 5 4 3 3 3 4 5 6 7 8 9 9 8 7 7 7 7 8 10 11 11 12 12 13 14 14 15 15 15 16 18 19 20 21 24 26 26 24 24 23 22 20 18 16 16 17 17 16 15 14 13 11 9 9 8 8 9 10 12 13 15 15 16 15 14 14 15 16 17 17 17 17 17 18 18 18 18 18 19 21 23 25
10 10 10 11 11 11 10 10 9 10 9 7 6 8 8 7 8 9 7 7 7 8 10 12 13 14 16 17 18 18 18 17 16 16 18 20 22 24 26 27 25 24 23 23 22 20 17 16 17 17 16 15 14 12 10 9 8 8 9 10 11 11 12 13 14 15 15 15 15 16 16 16 16 17 17 18 18 18 18 18 20 22 23 25 26
10 11 12 13 13 14 14 14 13 13 12 12 11 12 12 12 13 14 14 13 10 9 9 11 12 14 16 18 20 22 23 21 20 19 19 20 21 24 25 26 26 25 23 23 24 23 21 20 20 18 17 17 15 13 10 9 8 8 9 10 12 12 13 13 13 14 15 15 16 16 16 16 16 17 17 18 18 19 20 21 23 25 26 28 29
10 11 12 13 14 15 16 17 17 15 14 15 17 17 17 17 17 16 17 19 18 15 13 12 13 15 16 17 19 21 23 26 27 24 22 22 23 23 24 26 26 26 25 24 25 26 24 22 22 21 19 18 17 14 12 10 9 9 9 11 12 12 12 12 13 13 14 14 15 16 16 16 16 17 17 17 18 19 21 23 25 27 30 32 32
8 9 10 12 13 15 16 17 17 17 17 17 19 20 20 21 20 17 16 18 20 19 18 16 15 16 18 18 18 18 22 30 33 29 25 24 24 24 26 28 28 27 25 23 25 27 25 24 24 23 21 19 16 13 12 10 9 9 10 11 11 11 11 12 12 12 12 12 13 13 14 14 15 15 16 17 19 21 23 25 27 28 30 30 28
8 9 9 9 10 11 13 14 14 15 16 17 18 20 22 23 24 23 22 21 21 20 21 20 19 19 21 22 21 20 23 29 32 29 26 26 27 28 29 29 29 29 28 25 24 26 27 26 25 24 21 18 15 13 11 10 10 10 11 11 10 10 10 10 10 10 10 10 11 11 12 13 14 15 16 18 20 22 24 25 25 24 23 23 21
10 10 11 11 11 11 12 12 12 11 12 12 14 17 19 21 21 21 22 23 23 23 24 23 21 20 21 22 23 24 26 27 26 26 27 29 33 33 31 31 32 29 26 25 25 26 27 27 26 24 20 16 13 12 11 11 12 12 12 11 10 9 9 8 8 8 8 9 10 11 12 14 15 16 17 18 19 21 21 22 22 20 18 16 15
12 12 13 13 13 13 13 13 12 12 11 10 11 12 14 16 17 17 17 18 19 21 24 24 22 21 22 21 20 21 25 26 26 27 28 32 36 33 27 27 25 15 10 16 22 23 24 26 25 22 18 14 13 13 14 14 14 13 11 10 9 9 9 8 7 7 8 10 11 12 13 14 16 17 17 18 18 18 19 19 19 18 16 14 14
16 16 16 16 16 16 15 15 14 14 13 13 13 13 13 14 14 15 16 16 17 18 20 21 22 22 23 24 21 18 19 21 22 24 25 28 31 29 25 22 19 12 9 16 21 21 22 25 25 21 18 16 15 14 14 14 14 13 12 11 10 9 9 8 7 9 10 11 12 14 15 15 16 16 17 18 17 17 18 18 18 17 16 15 15
16 16 17 17 17 17 17 17 16 16 16 15 15 16 16 16 16 15 15 16 18 19 19 19 18 18 20 22 22 20 18 19 21 21 20 21 22 21 21 20 19 18 18 22 25 25 26 25 24 21 20 18 15 14 14 14 14 13 12 12 11 10 9 9 9 11 11 12 13 14 15 16 16 17 18 18 17 17 17 18 18 18 18 17 17
12 12 13 13 12 12 12 12 12 13 13 13 13 15 17 17 17 17 17 17 18 18 19 19 18 17 16 17 20 20 20 21 22 21 20 20 20 19 18 18 18 19 20 23 28 30 29 27 26 25 23 21 20 20 18 15 14 14 13 13 12 11 9 10 12 12 12 12 12 13 14 16 17 18 17 16 16 16 17 18 18 19 20 20 21
5 5 6 6 6 5 6 6 7 7 8 9 9 11 13 15 16 16 17 18 19 19 19 20 20 19 16 15 15 17 18 19 20 21 19 18 18 18 18 19 20 21 22 26 31 33 33 32 32 30 27 26 25 22 19 17 16 16 14 14 13 12 10 12 13 14 12 11 12 13 15 17 17 17 16 15 16 17 18 19 19 19 21 22 19
9 10 11 11 10 9 9 8 8 7 7 8 9 11 11 12 13 14 15 16 18 18 19 20 21 21 20 16 14 14 14 15 17 19 18 16 16 17 18 19 20 22 25 29 33 35 35 35 35 32 28 27 24 20 17 18 18 17 16 15 14 12 11 13 14 14 13 12 14 15 16 16 16 15 15 16 17 18 19 19 19 20 21 19 12
13 12 12 12 12 10 8 7 7 8 8 9 11 12 13 13 13 14 14 15 16 17 18 18 18 19 20 19 17 14 13 14 15 16 16 16 15 16 17 19 22 25 29 33 35 36 35 34 32 29 27 24 20 17 16 18 18 17 17 17 15 12 12 13 14 14 14 14 15 16 16 15 13 13 14 16 17 19 19 19 19 19 16 11 8
12 11 11 11 9 8 7 8 8 9 10 13 14 15 15 15 16 16 16 17 17 17 17 16 15 15 16 17 17 16 14 14 14 15 16 16 16 16 18 20 23 27 32 34 34 33 31 30 28 26 24 21 17 16 17 19 18 17 17 16 13 12 12 13 13 14 15 15 16 15 14 12 12 13 15 16 17 19 19 18 17 14 9 6 6
12 11 10 9 7 6 8 9 9 10 12 15 16 17 18 19 19 18 18 18 18 18 17 15 13 13 13 14 14 15 15 14 13 13 14 15 15 16 17 19 22 28 33 33 30 26 23 23 23 22 21 18 15 15 17 18 18 18 17 15 12 12 12 12 13 14 15 15 15 13 12 12 13 15 16 16 17 18 17 16 13 8 4 4 7
11 9 7 5 5 7 8 9 10 12 14 16 17 19 20 20 20 19 18 17 16 15 15 14 11 11 12 11 10 12 13 15 15 13 14 15 15 15 14 11 12 16 22 24 22 20 19 21 22 22 20 18 17 18 19 20 20 19 17 13 11 12 12 12 13 14 15 14 13 12 12 14 16 17 16 16 17 17 15 12 9 5 3 5 7
8 6 4 4 5 7 9 10 12 14 15 16 18 19 21 21 20 18 16 15 11 9 9 10 10 11 11 9 9 9 11 14 15 14 14 14 14 14 13 11 10 11 12 14 15 17 20 24 25 24 21 20 20 21 21 21 21 19 16 12 12 12 13 13 14 14 14 14 13 13 15 17 17 17 16 16 16 15 13 9 6 4 5 7 7
5 3 2 4 6 8 10 12 14 14 13 14 17 20 22 23 21 18 15 12 8 5 5 5 6 9 10 9 9 9 9 11 13 14 15 15 14 13 13 11 11 13 15 15 15 17 20 22 22 21 21 22 23 23 22 22 23 19 14 12 12 12 13 13 14 14 14 13 14 15 17 18 17 16 15 14 14 13 10 8 6 6 8 8 6
3 1 3 5 7 9 11 12 11 11 12 14 17 19 22 24 22 17 13 10 7 4 3 3 3 5 8 9 8 8 7 7 7 9 12 14 13 13 12 11 11 12 14 15 16 18 19 18 16 16 17 19 21 22 24 24 22 17 12 11 12 12 12 13 14 14 13 13 15 17 18 17 16 14 12 12 12 11 8 6 6 7 6 5 5
0 2 3 5 8 11 12 11 10 11 13 14 17 20 22 23 22 17 12 9 7 4 3 3 4 4 5 7 7 7 7 6 5 4 5 6 7 8 9 10 10 11 12 12 12 14 15 14 12 13 15 17 20 21 20 18 14 10 9 10 10 10 10 12 13 13 14 15 16 16 16 15 13 12 10 11 11 9 7 5 5 4 3 3 5
2 1 3 5 8 10 12 12 13 14 15 15 17 19 21 22 21 17 11 8 7 5 3 4 5 6 7 7 6 5 5 6 7 7 5 3 2 4 6 8 10 11 11 10 10 10 11 12 13 15 17 18 18 16 15 12 9 9 9 9 8 9 10 12 12 13 14 14 14 14 13 12 11 10 9 9 8 7 6 5 3 2 2 5 7
4 1 3 5 7 9 11 12 13 15 15 16 17 18 18 21 21 17 13 12 10 8 5 4 3 4 6 8 7 5 3 5 7 6 2 2 4 4 5 8 10 10 10 9 8 7 8 11 16 18 17 16 15 14 13 12 10 9 8 8 8 10 10 10 11 11 11 12 11 11 10 9 9 9 9 7 6 6 5 3 2 2 5 7 6
4 2 2 5 7 7 8 11 13 13 14 17 18 17 16 18 19 17 15 16 16 15 13 10 8 6 5 4 4 3 1 2 4 4 1 2 3 1 5 10 12 12 11 11 11 10 11 13 16 15 14 15 15 14 13 12 10 9 7 7 8 9 9 10 10 10 10 10 9 8 7 7 7 8 8 7 6 6 4 1 1 4 7 6 5
5 3 3 3 5 6 6 8 10 11 13 15 17 17 16 15 16 17 18 19 19 18 17 15 13 12 10 7 5 4 3 3 3 2 2 3 4 6 10 14 15 15 14 13 12 12 11 12 12 12 13 14 14 13 12 10 8 6 6 7 7 8 9 9 9 9 9 9 7 5 5 5 6 7 6 6 7 7 3 2 1 5 7 5 5
3 3 2 1 3 4 4 5 6 8 10 12 15 17 17 14 13 15 18 19 18 17 16 15 13 12 10 8 6 6 7 6 6 7 9 9 10 12 14 15 14 13 12 11 10 10 10 11 12 12 12 13 12 11 10 7 6 6 7 7 8 8 8 8 8 8 8 7 6 5 5 5 6 6 6 6 7 5 3 3 0 5 6 4 6
0 1 2 3 3 3 4 5 5 5 7 9 12 15 17 15 12 12 14 16 16 15 15 14 12 10 8 8 8 9 10 11 12 13 13 13 13 13 14 14 13 13 13 13 13 13 14 14 14 13 12 10 9 8 8 8 8 7 7 7 7 7 8 8 8 7 7 6 6 5 5 6 6 6 6 6 6 5 3 4 2 3 4 4 5
2 3 4 5 5 4 4 5 6 5 5 7 9 12 14 14 11 9 10 12 14 13 13 12 10 9 7 7 7 8 10 11 13 13 14 14 15 15 14 14 15 15 15 15 15 15 14 13 11 10 8 6 5 6 7 7 6 6 6 6 7 7 7 7 7 6 6 5 5 5 6 6 6 6 6 6 7 6 3 3 3 2 5 5 4
4 6 6 6 6 6 5 5 5 5 4 6 8 9 12 13 11 7 7 8 9 9 10 10 9 9 8 7 6 5 5 6 8 8 9 10 11 10 10 11 11 11 11 11 10 10 9 8 7 6 5 4 3 3 4 4 4 4 5 6 6 6 6 6 6 5 4 4 5 6 6 7 8 7 6 6 7 7 5 4 4 3 4 5 4
4 6 5 5 6 6 6 5 5 5 5 6 8 9 10 11 11 8 4 3 4 5 6 7 7 7 6 6 6 5 4 4 4 4 5 5 5 5 4 4 4 5 5 5 6 6 6 5 4 4 4 3 3 2 2 2 3 4 5 5 5 6 6 5 5 5 5 6 6 7 7 8 8 8 7 7 7 7 7 6 5 4 3 5 5
Wind_Direction
193 192 192 188 183 185 190 193 191 184 180 181 184 191 191 185 184 179 177 181 172 160 156 157 155 154 150 146 144 141 139 139 137 136 135 133 133 134 134 135 135 134 134 132 132 146 164 168 170 172 173 177 179 182 187 187 183 174 183 194 201 205 210 209 194 178 177 186 198 180 152 155 142 108 84 76 88 102 99 90 84 78 73 64 61
194 196 198 191 183 186 190 187 183 179 177 178 186 192 188 187 192 190 188 191 180 163 159 161 158 155 152 148 146 146 145 144 145 147 148 146 145 145 147 150 152 152 151 148 143 145 157 167 174 177 181 184 185 188 191 186 180 165 167 186 195 198 204 213 209 195 192 192 192 190 176 167 166 131 98 87 93 101 104 97 82 75 59 6 0
199 200 197 190 188 189 187 184 183 180 176 179 189 191 188 193 198 194 196 195 185 172 167 168 164 159 158 156 155 154 154 153 154 159 164 161 157 156 159 163 165 166 164 162 159 158 161 167 173 177 180 184 184 183 181 175 169 161 160 173 186 186 185 200 206 196 200 198 194 197 188 169 197 212 136 115 203 190 151 157 209 262 274 286 299
202 197 188 184 186 185 180 182 181 176 174 179 187 190 194 202 200 193 198 197 189 180 175 173 169 166 166 166 165 163 165 166 166 171 176 177 173 168 168 172 176 176 176 173 170 169 170 174 178 183 187 189 187 181 174 170 170 168 165 169 178 181 175 173 176 180 189 190 191 205 213 217 241 217 199 225 257 269 276 257 246 244 239 247 265
206 203 191 184 186 182 177 177 173 170 176 182 188 194 197 201 202 200 200 199 193 186 180 177 174 173 174 175 174 174 176 181 182 182 184 187 188 183 179 183 188 190 190 187 183 179 179 184 189 192 196 195 189 182 179 176 176 180 183 180 183 185 181 177 176 177 178 178 186 202 215 229 240 211 201 216 245 261 272 274 265 254 243 242 255
210 213 205 191 189 194 193 186 179 181 190 193 195 195 192 197 210 217 212 204 199 192 185 183 183 182 182 180 181 184 188 194 195 191 190 191 194 195 192 193 200 205 205 203 204 203 196 196 199 201 201 202 197 190 189 190 186 187 193 194 192 189 186 186 184 182 181 180 186 200 213 227 238 223 208 206 222 250 268 278 280 271 258 255 263
216 217 211 194 188 196 199 192 189 194 198 200 199 195 199 209 216 221 220 211 202 196 192 192 192 191 191 190 189 194 201 205 204 203 200 196 196 199 201 206 214 217 214 213 217 221 217 213 215 214 207 205 204 200 197 198 196 192 194 199 199 194 192 191 187 183 184 186 191 202 214 227 236 232 223 217 227 248 263 273 280 277 270 268 272
218 217 213 199 189 193 196 193 192 196 200 203 201 203 215 219 213 214 217 209 202 201 200 199 200 200 199 198 199 203 211 216 220 224 222 212 208 209 213 222 228 226 223 222 224 226 225 226 229 225 216 209 210 209 204 204 204 198 197 202 206 207 205 201 194 190 189 193 197 204 214 225 232 236 240 241 244 252 258 264 271 273 272 273 276
206 209 208 206 200 198 198 196 193 196 203 208 209 209 212 208 201 203 207 203 201 203 203 203 206 206 205 205 207 210 215 223 233 236 233 231 230 227 228 233 233 231 232 232 231 230 229 230 228 224 221 217 216 215 210 207 207 204 201 204 210 215 215 212 206 202 202 205 210 217 223 228 230 233 239 245 249 255 261 265 268 270 272 275 280
195 199 199 205 208 207 207 205 204 207 214 219 220 214 206 203 201 200 202 201 201 203 205 206 208 210 210 210 212 216 220 227 235 239 238 242 243 238 239 242 240 240 244 243 239 234 229 229 226 221 221 219 216 216 214 209 209 210 207 205 206 210 214 216 217 216 218 223 230 237 240 237 234 233 237 244 252 259 264 268 270 272 273 275 277
196 198 194 199 206 209 211 214 216 217 219 225 225 215 207 208 207 201 201 204 203 203 207 209 212 216 217 217 219 224 229 234 239 242 244 249 248 242 241 243 244 249 253 250 244 236 228 224 220 216 217 217 214 214 214 213 214 217 216 211 210 214 218 222 225 229 235 239 243 246 246 243 240 240 242 248 254 258 263 267 269 272 275 277 278
199 203 201 200 203 206 209 212 215 217 217 219 220 215 213 214 211 204 203 205 207 209 211 214 218 221 223 226 228 231 236 241 244 247 248 250 249 245 241 242 247 254 256 249 238 226 217 213 211 210 213 214 214 216 216 215 217 220 220 216 214 217 220 222 228 233 239 244 246 246 245 242 242 243 245 248 251 256 260 265 268 272 277 281 284
181 193 196 198 203 206 209 211 213 215 214 213 215 216 217 217 214 210 209 209 213 215 216 220 224 226 228 230 233 237 242 244 246 250 250 249 250 247 243 245 249 249 244 232 216 203 201 203 205 205 207 207 209 212 213 215 217 215 211 207 207 210 215 219 225 230 234 238 241 241 241 241 242 244 245 247 251 256 260 265 269 275 279 284 289
153 161 160 164 176 185 196 203 207 209 209 209 214 217 217 217 216 215 213 213 216 220 222 224 227 230 233 235 239 244 247 246 248 251 250 252 257 252 243 238 234 225 212 199 190 188 193 199 200 198 196 197 199 201 203 206 207 204 201 204 209 214 218 224 231 237 242 244 245 245 244 244 245 247 250 252 256 260 265 270 274 279 284 288 293
133 140 140 143 149 152 167 184 193 201 206 207 210 214 217 219 219 220 220 220 222 225 228 231 233 235 238 241 245 248 249 248 249 250 252 258 259 247 231 217 209 203 195 184 180 185 191 194 195 194 192 193 195 198 200 200 200 203 210 218 222 224 226 233 242 249 254 258 257 254 251 250 250 252 255 259 263 266 270 275 279 283 287 290 292
115 125 130 133 138 144 158 172 177 185 195 200 206 212 217 220 224 227 229 231 233 237 240 241 241 242 244 247 249 250 249 249 250 252 254 254 244 223 209 201 197 197 194 185 182 188 192 192 192 192 194 197 199 199 201 204 207 216 227 233 235 237 241 246 250 253 259 265 268 265 260 260 262 264 266 268 271 274 276 280 284 287 290 291 292
97 104 110 115 122 129 139 151 157 163 167 169 182 201 211 217 224 229 233 235 237 241 243 243 243 245 248 250 250 249 249 249 249 249 245 232 215 203 200 199 197 198 197 192 191 196 200 201 199 198 199 199 201 206 216 223 227 233 241 247 251 253 255 257 259 264 271 275 278 280 280 280 281 282 284 285 284 285 287 289 291 293 293 294 294
91 93 97 102 107 113 118 124 135 148 152 147 149 161 174 202 221 228 235 239 238 238 239 239 242 246 247 248 248 247 246 243 238 230 217 206 201 199 202 204 205 205 204 201 200 204 208 209 208 209 210 211 216 228 241 246 244 243 249 257 262 263 265 267 271 277 284 286 285 285 284 285 287 290 292 293 293 294 295 296 297 297 297 297 297
90 90 93 97 100 104 107 109 115 126 132 138 149 153 150 164 207 229 241 244 241 242 242 239 240 242 240 239 238 236 233 226 216 206 200 199 202 206 209 213 214 213 210 207 205 206 209 212 213 215 219 222 227 233 237 239 241 245 250 257 262 265 266 268 270 272 275 277 277 278 281 286 291 295 296 295 295 297 297 297 296 296 295 295 294
84 89 94 100 104 109 112 114 117 123 128 132 140 155 168 177 187 203 219 231 234 233 233 234 235 231 230 231 227 219 214 210 207 204 202 205 212 217 220 220 218 216 214 214 215 215 215 217 221 225 226 224 222 220 219 225 232 240 247 252 257 260 263 266 267 267 267 269 272 276 283 288 290 290 290 291 293 296 295 294 295 295 294 293 292
65 103 114 115 118 122 127 132 134 137 144 147 150 159 171 185 200 208 215 235 250 246 239 242 244 234 228 227 222 216 216 217 218 217 215 217 223 225 223 219 216 216 217 218 221 221 222 224 227 225 222 219 217 217 220 226 233 241 249 253 251 251 254 257 261 265 270 275 279 283 286 287 287 288 290 293 296 296 296 296 297 297 296 295 295
293 275 257 252 254 258 242 215 204 196 182 171 168 170 170 176 188 194 200 221 245 251 249 252 255 249 241 238 233 229 227 227 228 227 226 225 225 224 220 215 213 216 219 221 223 223 224 226 223 218 214 214 216 219 225 232 237 244 253 257 255 252 252 254 259 265 273 278 281 283 284 284 286 290 294 298 299 299 298 299 299 300 300 300 301
287 285 279 275 276 281 284 280 271 260 251 239 214 205 211 217 212 210 213 218 227 238 245 250 255 255 250 246 243 240 236 231 229 230 231 228 223 221 220 218 218 219 222 224 225 225 225 223 218 215 216 217 218 223 230 235 238 247 257 262 263 260 258 258 261 265 271 275 278 280 282 283 286 290 292 294 295 296 298 299 301 302 303 303 304
274 276 278 278 277 278 279 279 278 272 263 259 253 247 250 253 244 237 235 236 238 243 246 247 251 254 252 249 246 243 240 237 235 230 226 226 225 223 224 226 226 225 223 224 225 226 227 225 220 219 220 218 218 225 230 230 235 246 258 264 267 266 265 265 266 266 269 272 275 277 279 282 284 285 285 287 289 292 296 299 301 302 302 302 302
270 268 269 270 271 271 270 268 268 268 263 261 261 260 258 258 256 252 246 245 249 256 260 257 257 261 260 252 248 246 242 240 238 231 224 226 228 229 230 233 234 233 230 227 226 227 228 225 221 220 218 215 216 219 219 220 229 243 257 265 268 272 274 274 272 272 272 272 273 274 276 279 281 282 283 287 291 295 297 299 299 299 298 297 297
294 285 277 273 271 271 271 269 267 265 262 260 259 260 261 260 261 263 260 254 253 255 258 257 258 266 266 254 246 245 242 240 236 227 221 225 229 231 233 233 234 237 236 228 221 223 225 224 221 216 212 211 214 214 213 217 230 246 260 269 272 275 277 276 276 275 274 274 276 277 279 281 282 284 287 292 295 297 298 298 297 297 296 296 296
322 317 311 302 293 285 280 278 275 271 267 262 257 255 256 257 259 261 262 259 255 253 254 253 250 255 262 258 250 247 249 248 240 229 225 231 234 232 232 232 235 238 236 226 216 215 220 222 218 211 208 209 212 212 214 223 235 249 261 270 276 278 276 275 276 277 276 279 282 284 285 284 284 286 289 292 295 297 298 300 302 304 303 301 299
316 316 316 313 310 304 297 291 287 282 274 267 260 255 252 252 255 258 260 260 257 253 254 255 252 251 255 256 253 251 254 256 247 234 233 239 238 233 228 228 232 233 228 220 212 208 213 216 211 204 204 208 211 214 220 229 238 250 261 269 274 275 274 273 274 276 278 281 284 286 286 283 284 286 290 294 298 301 305 311 315 316 316 313 309
298 299 301 303 303 303 301 297 295 291 284 275 264 257 254 253 255 256 257 259 260 257 255 256 256 254 252 250 251 255 258 258 252 244 243 245 246 245 237 227 226 226 210 207 207 204 207 210 206 203 206 215 219 223 229 235 241 250 261 267 266 265 268 271 275 282 286 288 288 287 284 283 285 290 296 302 308 313 319 325 327 325 324 323 322
289 288 290 292 294 297 299 299 298 297 293 287 276 265 256 253 257 262 262 260 262 263 261 260 260 261 258 252 249 255 263 265 262 256 252 250 252 258 261 253 252 263 247 220 216 215 213 210 208 209 213 218 222 227 234 241 248 255 259 260 257 258 264 272 280 286 287 288 289 287 287 289 293 298 304 310 317 323 329 333 333 330 326 324 324
289 287 288 289 292 296 297 298 299 298 297 297 293 285 272 260 254 259 266 268 266 265 265 266 265 266 265 260 253 250 254 260 262 261 262 261 258 258 261 263 264 262 245 228 224 223 216 207 208 212 213 212 216 222 230 239 251 258 258 253 251 255 263 272 278 279 279 281 286 288 290 295 299 302 307 312 319 325 329 331 331 330 329 328 325
294 294 297 299 300 302 302 303 305 306 307 307 305 301 295 286 273 263 262 267 271 271 271 271 270 267 265 261 254 248 244 248 253 255 259 262 258 252 250 252 253 251 242 229 224 221 214 210 213 215 212 212 214 216 218 228 243 252 250 247 248 254 265 275 277 275 276 281 287 290 291 294 298 301 305 311 318 324 327 327 327 328 327 326 322
326 341 354 358 356 350 348 349 350 348 347 342 332 323 318 312 302 288 275 270 273 275 275 274 274 272 269 264 256 249 242 241 244 246 247 251 250 248 248 247 246 245 238 229 224 222 219 219 219 215 213 216 216 213 213 222 236 242 242 240 242 248 263 276 277 275 276 282 287 290 292 293 295 299 305 312 319 322 323 323 323 323 323 324 327
59 55 50 47 44 39 32 28 29 28 19 5 352 341 333 325 319 311 301 290 283 279 276 274 274 274 274 273 267 257 249 244 241 239 237 237 237 237 240 240 240 241 238 232 228 226 224 222 217 213 215 218 217 213 218 227 232 235 235 234 235 241 257 272 274 273 274 279 283 289 293 293 294 299 306 312 316 319 320 320 319 320 323 328 339
69 62 57 54 51 46 40 36 35 28 12 358 350 342 334 326 316 307 303 299 294 289 286 283 279 276 275 275 273 268 260 253 248 242 237 232 229 230 230 229 232 234 234 232 230 230 228 224 218 215 215 215 211 214 225 230 230 231 232 229 230 242 260 269 270 269 270 275 282 289 292 291 293 300 306 310 314 317 319 317 316 319 325 336 352
66 63 62 61 58 50 39 30 22 8 354 351 351 347 340 334 323 311 301 293 288 285 285 286 284 279 276 274 272 269 265 257 249 244 241 236 234 235 236 236 236 234 230 227 227 228 227 224 219 215 213 212 212 216 221 224 228 232 230 225 231 252 266 266 263 263 268 277 285 289 289 289 294 301 305 309 315 320 319 316 316 321 332 342 345
69 66 65 63 54 37 24 16 5 354 351 354 356 353 348 342 334 326 315 302 288 278 275 279 282 276 269 265 261 260 260 258 252 244 240 238 235 234 237 239 239 236 232 226 221 218 216 213 208 206 209 215 219 219 219 224 230 230 223 221 238 259 262 254 252 259 269 279 286 288 288 290 296 302 305 310 317 322 321 316 319 332 351 341 333
71 66 63 56 34 16 7 360 357 358 360 1 0 357 352 347 340 332 324 314 301 282 271 271 273 265 255 251 249 248 248 250 249 244 241 241 234 223 217 214 219 229 232 226 217 211 208 205 203 205 209 214 217 220 224 227 225 220 217 223 242 252 247 242 249 260 270 278 284 288 292 296 300 304 306 311 320 325 325 323 331 356 8 341 331
70 66 53 19 4 3 358 352 355 1 4 6 5 2 359 356 349 341 332 326 317 296 277 271 264 257 252 250 251 248 244 244 246 243 237 231 220 206 196 185 175 183 196 202 201 198 197 201 205 205 206 210 216 221 225 221 213 210 215 230 242 243 239 241 251 261 268 275 283 290 296 299 301 302 306 313 322 328 332 344 6 11 341 330 327
83 71 10 352 358 359 352 349 352 360 8 11 9 6 6 4 357 349 343 341 336 320 304 285 254 242 244 248 256 259 249 241 244 245 239 227 213 203 201 197 192 189 191 196 201 199 199 206 209 205 208 217 219 215 212 211 209 210 220 235 241 239 240 247 256 261 265 273 283 291 297 300 299 299 305 315 321 326 337 360 13 348 328 330 333
86 6 338 359 4 354 348 351 -0 13 19 15 11 11 11 8 3 357 352 349 347 337 322 314 269 236 234 239 249 253 238 217 219 233 233 224 215 210 208 204 204 206 208 211 214 212 211 216 218 215 218 218 208 198 200 204 206 208 219 232 235 237 245 254 257 257 262 275 285 292 296 296 293 295 304 310 315 324 341 356 349 336 338 350 346
14 314 335 357 354 349 357 14 27 26 19 14 14 15 14 10 7 5 2 358 354 343 296 287 294 283 260 248 244 237 220 193 169 167 186 191 191 196 197 194 197 207 213 217 219 217 217 220 220 214 206 197 190 194 202 202 199 205 221 227 232 240 247 249 251 257 269 280 287 290 291 288 287 293 301 304 312 327 344 348 341 341 356 2 347
217 329 3 0 356 4 22 37 36 25 18 17 17 16 15 14 13 13 18 22 18 6 331 291 285 288 294 295 287 266 224 191 165 146 143 169 218 232 217 199 192 194 199 202 206 210 215 211 200 191 188 186 191 202 208 203 204 221 227 224 228 237 239 244 255 267 276 282 284 284 285 284 287 293 297 299 308 323 336 347 5 22 350 336 336
204 188 22 13 14 27 39 39 32 25 22 20 17 15 16 18 18 20 33 45 45 40 29 5 321 299 305 313 321 321 269 192 160 137 129 288 297 283 227 192 181 177 176 176 177 180 186 185 180 179 182 185 189 197 203 204 210 219 220 220 228 235 241 255 268 274 277 279 280 282 286 289 291 292 293 294 296 306 323 355 49 19 340 330 325
163 148 53 31 28 33 37 35 30 25 21 19 16 14 16 19 21 27 40 49 49 48 45 41 37 28 12 3 11 13 9 158 128 101 77 329 340 5 162 162 162 162 162 164 166 168 172 177 179 179 181 183 186 193 200 203 205 212 221 230 239 249 259 267 271 272 275 278 279 283 296 302 297 294 294 289 284 290 303 348 52 349 337 332 332
114 107 90 52 32 24 22 25 27 22 14 12 12 12 14 18 24 33 44 50 49 44 41 41 42 39 34 34 49 75 104 108 84 85 124 118 104 125 147 154 159 163 165 167 169 171 174 179 183 186 188 190 191 194 196 198 206 227 246 252 258 267 269 268 267 271 273 271 272 284 308 318 312 305 298 289 286 288 277 178 51 341 333 331 341
111 101 91 35 16 13 3 2 13 15 7 3 6 11 13 16 23 34 43 48 49 46 41 39 40 43 46 54 74 104 117 115 113 126 135 134 133 142 151 158 164 168 168 165 164 165 167 171 177 181 184 185 185 188 196 212 241 263 266 262 262 265 266 266 268 270 266 260 262 277 301 318 322 319 311 300 297 289 233 179 208 335 330 333 346
96 50 24 2 352 349 342 336 337 348 353 355 0 7 9 11 20 35 41 43 45 48 47 43 42 46 61 82 99 110 115 117 120 123 126 128 133 141 150 156 160 162 161 158 156 156 157 160 163 168 173 179 190 208 228 247 259 263 260 258 259 262 266 269 270 266 259 255 259 272 290 305 315 322 323 312 300 283 227 193 212 318 324 332 344
323 324 338 341 329 316 320 324 316 315 332 346 354 0 3 2 9 31 45 43 43 46 47 48 50 53 62 82 102 112 117 120 122 122 122 125 129 134 141 146 148 150 151 150 150 152 155 159 163 169 179 196 226 243 243 242 241 243 247 251 257 263 267 268 265 261 258 259 265 275 283 289 296 311 321 314 304 299 275 201 201 287 321 328 331
308 299 302 310 305 294 295 306 303 296 309 331 341 351 354 352 354 19 53 55 48 47 46 44 47 52 53 58 69 85 103 115 119 120 122 125 129 134 140 146 150 154 157 158 160 164 169 173 179 187 201 227 255 252 231 221 227 240 248 255 261 265 263 259 257 260 267 279 285 286 286 285 286 293 304 304 301 300 288 237 212 241 312 322 317
280 283 284 284 279 271 266 273 283 285 295 317 329 333 337 341 347 0 38 76 77 73 64 48 41 44 50 52 54 53 56 69 88 101 107 109 111 117 124 137 157 171 179 183 186 187 188 193 207 224 236 247 260 263 252 251 262 268 268 268 268 261 254 253 259 270 286 296 295 293 292 289 286 288 294 297 296 291 280 262 241 233 276 315 317